When you browse on this site, cookies collect data to enhance your experience and personalize the content and advertising you see.
Visit our Privacy Policy to learn more. By continuing to use the site, you agree to this use of cookies and data.
EN

Hourly Weather Kecskemet

Today, 14 July, Tuesday

Time Temperature Precipitation Wind Pressure Humidity
00:00 +15°C° 0 mm 2 mps 754 mmHg 73%
01:00 +13°C° 0 mm 3 mps 754 mmHg 70%
02:00 +13°C° 0 mm 3 mps 754 mmHg 68%
03:00 +13°C° 0 mm 3 mps 753 mmHg 67%
04:00 +13°C° 0 mm 3 mps 753 mmHg 65%
05:00 +14°C° 0 mm 3 mps 753 mmHg 65%
06:00 +16°C° 0 mm 3 mps 753 mmHg 65%
07:00 +17°C° 0 mm 4 mps 753 mmHg 64%
08:00 +18°C° 0 mm 4 mps 753 mmHg 59%
09:00 +20°C° 0 mm 4 mps 753 mmHg 54%
10:00 +21°C° 0 mm 4 mps 753 mmHg 49%
11:00 +22°C° 0 mm 4 mps 753 mmHg 48%
12:00 +22°C° 0 mm 4 mps 752 mmHg 46%
13:00 +23°C° 0 mm 4 mps 752 mmHg 45%
14:00 +23°C° 0 mm 4 mps 752 mmHg 46%
15:00 +24°C° 0 mm 3 mps 751 mmHg 47%
16:00 +24°C° 0 mm 3 mps 751 mmHg 48%
17:00 +22°C° 0 mm 3 mps 751 mmHg 53%
18:00 +20°C° 0 mm 2 mps 751 mmHg 59%
19:00 +19°C° 0 mm 2 mps 751 mmHg 65%
20:00 +19°C° 0 mm 1 mps 751 mmHg 68%
21:00 +18°C° 0 mm 1 mps 751 mmHg 70%
22:00 +16°C° 0 mm 1 mps 751 mmHg 73%
23:00 +15°C° 0 mm 1 mps 751 mmHg 74%

Tomorrow, 15 July, Wednesday

Time Temperature Precipitation Wind Pressure Humidity
00:00 +15°C° 0 mm 1 mps 751 mmHg 76%
01:00 +14°C° 0 mm 1 mps 751 mmHg 78%
02:00 +14°C° 0 mm 1 mps 751 mmHg 79%
03:00 +14°C° 0 mm 1 mps 750 mmHg 80%
04:00 +13°C° 0 mm 1 mps 750 mmHg 82%
05:00 +15°C° 0 mm 1 mps 750 mmHg 77%
06:00 +18°C° 0 mm 1 mps 751 mmHg 71%
07:00 +19°C° 0 mm 1 mps 751 mmHg 66%
08:00 +21°C° 0 mm 1 mps 751 mmHg 61%
09:00 +22°C° 0 mm 1 mps 751 mmHg 56%
10:00 +24°C° 0 mm 1 mps 751 mmHg 50%
11:00 +24°C° 0 mm 1 mps 750 mmHg 47%
12:00 +25°C° 0 mm 1 mps 750 mmHg 43%
13:00 +26°C° 0 mm 1 mps 750 mmHg 40%
14:00 +26°C° 0 mm 1 mps 750 mmHg 39%
15:00 +26°C° 0 mm 1 mps 749 mmHg 38%
16:00 +27°C° 0 mm 1 mps 749 mmHg 37%
17:00 +25°C° 0 mm 1 mps 749 mmHg 42%
18:00 +24°C° 0 mm 1 mps 749 mmHg 48%
19:00 +22°C° 0 mm 1 mps 749 mmHg 53%
20:00 +21°C° 0 mm 1 mps 749 mmHg 54%
21:00 +21°C° 0 mm 1 mps 749 mmHg 54%
22:00 +20°C° 0 mm 1 mps 749 mmHg 55%
23:00 +19°C° 0 mm 1 mps 749 mmHg 58%

Day after tomorrow, 16 July, Thursday

Time Temperature Precipitation Wind Pressure Humidity
00:00 +17°C° 0 mm 0 mps 749 mmHg 61%
01:00 +16°C° 0 mm 0 mps 749 mmHg 63%
02:00 +16°C° 0 mm 0 mps 749 mmHg 65%
03:00 +15°C° 0 mm 0 mps 749 mmHg 66%
04:00 +15°C° 0 mm 0 mps 749 mmHg 67%
05:00 +18°C° 0 mm 1 mps 749 mmHg 64%
06:00 +20°C° 0 mm 1 mps 749 mmHg 61%
07:00 +22°C° 0 mm 1 mps 750 mmHg 57%
08:00 +23°C° 0 mm 2 mps 750 mmHg 54%
09:00 +25°C° 0 mm 2 mps 750 mmHg 51%
10:00 +26°C° 0 mm 3 mps 750 mmHg 47%
11:00 +27°C° 0 mm 3 mps 749 mmHg 46%
12:00 +27°C° 0 mm 3 mps 749 mmHg 46%
13:00 +28°C° 0 mm 4 mps 749 mmHg 45%
14:00 +28°C° 0 mm 4 mps 749 mmHg 47%
15:00 +27°C° 0 mm 4 mps 749 mmHg 49%
16:00 +27°C° 0 mm 5 mps 748 mmHg 51%
17:00 +25°C° 0 mm 4 mps 748 mmHg 56%
18:00 +23°C° 0 mm 4 mps 748 mmHg 61%
19:00 +22°C° 0 mm 3 mps 748 mmHg 67%
20:00 +21°C° 0 mm 3 mps 749 mmHg 66%
21:00 +20°C° 0 mm 4 mps 749 mmHg 65%
22:00 +20°C° 0 mm 4 mps 749 mmHg 63%
23:00 +20°C° 0 mm 4 mps 749 mmHg 63%

17 July, Friday

Time Temperature Precipitation Wind Pressure Humidity
00:00 +19°C° 0 mm 4 mps 749 mmHg 62%
01:00 +19°C° 0 mm 4 mps 749 mmHg 62%
02:00 +19°C° 0 mm 4 mps 749 mmHg 64%
03:00 +18°C° 0 mm 4 mps 749 mmHg 65%
04:00 +18°C° 0 mm 4 mps 749 mmHg 67%
05:00 +18°C° 0 mm 4 mps 749 mmHg 68%
06:00 +18°C° 0 mm 4 mps 749 mmHg 69%
07:00 +18°C° 0 mm 4 mps 749 mmHg 70%
08:00 +19°C° 0 mm 4 mps 750 mmHg 67%
09:00 +20°C° 0 mm 4 mps 750 mmHg 63%
10:00 +21°C° 0 mm 3 mps 750 mmHg 59%
11:00 +22°C° 0.1 mm 3 mps 750 mmHg 56%
12:00 +24°C° 0.1 mm 3 mps 750 mmHg 53%
13:00 +25°C° 0.1 mm 3 mps 750 mmHg 50%
14:00 +23°C° 0.2 mm 4 mps 750 mmHg 52%
15:00 +23°C° 0.2 mm 4 mps 749 mmHg 55%
16:00 +23°C° 0.2 mm 4 mps 749 mmHg 57%
17:00 +21°C° 0 mm 3 mps 749 mmHg 66%
18:00 +20°C° 0 mm 3 mps 749 mmHg 74%
19:00 +19°C° 0 mm 2 mps 749 mmHg 83%
20:00 +18°C° 0 mm 2 mps 750 mmHg 85%
21:00 +18°C° 0 mm 1 mps 750 mmHg 88%
22:00 +16°C° 0 mm 1 mps 750 mmHg 91%
23:00 +16°C° 0 mm 1 mps 750 mmHg 91%

18 July, Saturday

Time Temperature Precipitation Wind Pressure Humidity
00:00 +15°C° 0 mm 1 mps 750 mmHg 91%
01:00 +15°C° 0 mm 1 mps 750 mmHg 92%
02:00 +15°C° 0 mm 1 mps 750 mmHg 92%
03:00 +15°C° 0 mm 1 mps 750 mmHg 93%
04:00 +14°C° 0 mm 1 mps 750 mmHg 93%
05:00 +16°C° 0 mm 1 mps 750 mmHg 88%
06:00 +18°C° 0 mm 1 mps 750 mmHg 83%
07:00 +19°C° 0 mm 1 mps 750 mmHg 78%
08:00 +21°C° 0 mm 1 mps 750 mmHg 71%
09:00 +22°C° 0 mm 1 mps 750 mmHg 64%
10:00 +23°C° 0 mm 1 mps 750 mmHg 57%
11:00 +24°C° 0.1 mm 1 mps 750 mmHg 54%
12:00 +25°C° 0.1 mm 1 mps 749 mmHg 51%
13:00 +26°C° 0.1 mm 1 mps 749 mmHg 48%
14:00 +26°C° 0.1 mm 1 mps 749 mmHg 48%
15:00 +26°C° 0.1 mm 1 mps 749 mmHg 47%
16:00 +26°C° 0.1 mm 1 mps 748 mmHg 47%
17:00 +24°C° 0 mm 1 mps 749 mmHg 52%
18:00 +23°C° 0 mm 1 mps 749 mmHg 57%
19:00 +22°C° 0 mm 1 mps 749 mmHg 62%
20:00 +21°C° 0 mm 1 mps 749 mmHg 65%
21:00 +20°C° 0 mm 1 mps 749 mmHg 67%
22:00 +19°C° 0 mm 1 mps 749 mmHg 70%
23:00 +18°C° 0 mm 1 mps 749 mmHg 72%

19 July, Sunday

Time Temperature Precipitation Wind Pressure Humidity
00:00 +18°C° 0 mm 1 mps 749 mmHg 74%
01:00 +18°C° 0 mm 1 mps 749 mmHg 75%
02:00 +16°C° 0 mm 2 mps 749 mmHg 78%
03:00 +16°C° 0 mm 2 mps 749 mmHg 81%
04:00 +15°C° 0 mm 2 mps 749 mmHg 83%
05:00 +17°C° 0 mm 2 mps 749 mmHg 79%
06:00 +18°C° 0 mm 2 mps 750 mmHg 74%
07:00 +20°C° 0 mm 2 mps 750 mmHg 70%
08:00 +21°C° 0 mm 2 mps 750 mmHg 64%
09:00 +24°C° 0 mm 2 mps 750 mmHg 58%
10:00 +25°C° 0 mm 3 mps 750 mmHg 52%
11:00 +26°C° 0 mm 3 mps 750 mmHg 49%
12:00 +27°C° 0 mm 4 mps 749 mmHg 46%
13:00 +28°C° 0 mm 4 mps 749 mmHg 43%
14:00 +27°C° 0 mm 5 mps 749 mmHg 44%
15:00 +27°C° 0 mm 5 mps 749 mmHg 46%
16:00 +27°C° 0 mm 5 mps 749 mmHg 47%
17:00 +26°C° 0 mm 4 mps 749 mmHg 53%
18:00 +25°C° 0 mm 3 mps 749 mmHg 58%
19:00 +24°C° 0 mm 2 mps 749 mmHg 64%
20:00 +23°C° 0 mm 2 mps 749 mmHg 66%
21:00 +21°C° 0 mm 2 mps 749 mmHg 67%
22:00 +20°C° 0 mm 2 mps 750 mmHg 69%
23:00 +19°C° 0 mm 2 mps 750 mmHg 71%
Show more